Regional Weather Roundup
Issued by NWS

Home | Current Version | Previous Version | Text Only | Print | Product List | Glossary On
Versions: 1 2 3 4 5 6 7 8 9 10 11 12 13 14 15 16 17 18 19 20 21 22 23 24 25 26 27 28 29 30 31 32 33 34 35 36 37 38 39 40 41 42 43 44 45 46 47 48 49 50
000
ASUS43 KIND 251709
RWRIN

WEATHER ROUNDUP FOR INDIANA
NATIONAL WEATHER SERVICE INDIANAPOLIS IN
100 PM EDT SUN OCT 25 2020

NOTE: "FAIR" INDICATES FEW OR NO CLOUDS BELOW 12,000 FEET WITH NO
SIGNIFICANT WEATHER AND/OR OBSTRUCTIONS TO VISIBILITY.

* - STATION DOES NOT REPORT WEATHER SUCH AS PRECIPITATION OR FOG.

+ - STATION NOT QUALITY CONTROLLED BY THE NATIONAL WEATHER SERVICE.
    USE DATA WITH CAUTION...ESPECIALLY DEWPOINT AND RELATIVE
    HUMIDITY OBSERVATIONS.

INZ001>003-010>013-019-020-251800-
NORTHWEST INDIANA

CITY           SKY/WX    TMP DP  RH WIND       PRES   REMARKS
GARY /AIRPORT/ CLOUDY    46  36  66 E9        30.20F
KNOX *+        CLOUDY    46  32  57 NE10      30.18F
LA PORTE +     PTSUNNY   46  34  62 E10       30.19F
MICHIGAN CITY+ CLOUDY    45  32  61 CALM      30.20F
MONTICELLO +     N/A     46  34  62 E9G17     30.15F
RENSSELAER +   CLOUDY    46  36  66 E15G21    30.16F
VALPARAISO     CLOUDY    47  35  63 NE9       30.18F

$$

LMZ046-743>745-251800-
SOUTHERN LAKE MICHIGAN

STATION/POSITION TIME  TEMP    WIND        PRES    WAVE
                       AIR SEA DIR/SP/G            HT
                 (UTC) (F)     (DEG/KT/KT) (MB)    (FT)

$$

INZ004-005-014>016-021>024-251800-
NORTH CENTRAL INDIANA

CITY           SKY/WX    TMP DP  RH WIND       PRES   REMARKS
GOSHEN         CLOUDY    46  32  58 NE9       30.19S
LOGANSPORT +   CLOUDY    48  36  61 E8G17     30.16S
PERU/GRISSOM   CLOUDY    47  38  71 E16       30.13F
PLYMOUTH *+    CLOUDY    45  32  61 E9        30.17F
ROCHESTER +    CLOUDY    46  32  57 E8        30.18S
SOUTH BEND     CLOUDY    46  31  55 E8        30.20F
WARSAW +       CLOUDY    45  32  61 E12       30.18F

$$

INZ006>009-017-018-025>027-251800-
NORTHEAST INDIANA

CITY           SKY/WX    TMP DP  RH WIND       PRES   REMARKS
ANGOLA *+      MOSUNNY   46  30  53 NE10      30.18F
AUBURN +       CLOUDY    46  34  61 NE13      30.18F
FORT WAYNE     CLOUDY    47  33  58 NE15      30.16F
HUNTINGTON +   CLOUDY    46  32  58 NE10      30.16F
KENDALLVILLE + CLOUDY    46  32  57 E9        30.18F

$$

INZ028-029-035-036-043>045-051>053-251800-
WEST CENTRAL INDIANA

CITY           SKY/WX    TMP DP  RH WIND       PRES   REMARKS
CRAWFORDSVL +  CLOUDY    47  36  66 NE12      30.11F
GREENCASTLE +  CLOUDY    49  38  66 E9        30.10F
LAFAYETTE      CLOUDY    50  39  66 NE13      30.13F
TERRE HAUTE    CLOUDY    52  38  58 E9        30.10F

$$

INZ030>032-037>040-046>048-054>057-064-065-251800-
CENTRAL INDIANA

CITY           SKY/WX    TMP DP  RH WIND       PRES   REMARKS
COLUMBUS       CLOUDY    50  37  62 E10       30.10F
FRANKFORT +    CLOUDY    50  37  62 E15       30.14F
GREENWOOD *+   CLOUDY    48  37  66 E8        30.11S
INDIANAPOLIS   CLOUDY    50  37  61 E12       30.10F
-EAGLE CREEK   CLOUDY    50  36  58 E12       30.10F
KOKOMO +       CLOUDY    47  36  65 E15       30.14F
MARION +       CLOUDY    46  36  67 NE15      30.14F
MT COMFORT *+  CLOUDY    50  41  71 NE15      30.11F
SHELBYVILLE    CLOUDY    53  35  50 NE14      30.09F
ZIONSVILLE +   CLOUDY    49  37  63 E12G18    30.12S

$$

INZ033-034-041-042-049-050-058-059-251800-
EAST CENTRAL INDIANA

CITY           SKY/WX    TMP DP  RH WIND       PRES   REMARKS
MUNCIE         CLOUDY    52  37  56 E13G21    30.12F
PORTLAND +     CLOUDY    48  32  53 NE8       30.13F
RICHMOND +     CLOUDY    46  34  61 E14       30.11F

$$

INZ060-061-067>069-081>083-085>088-251800-
SOUTHWEST INDIANA

CITY           SKY/WX    TMP DP  RH WIND       PRES   REMARKS
EVANSVILLE     CLOUDY    52  42  69 NE7       30.06F
HUNTINGBURG +  CLOUDY    49  45  86 NE7       30.07F
WASHINGTON +   CLOUDY    48  43  81 NE7       30.08F

$$

INZ062-063-066-070>080-084-089>092-251800-
SOUTH CENTRAL AND SOUTHEAST INDIANA

CITY           SKY/WX    TMP DP  RH WIND       PRES   REMARKS
BATESVILLE +   CLOUDY    48  39  71 E15       30.09F
BEDFORD +      CLOUDY    46  41  81 E6        30.09R
BLOOMINGTON    CLOUDY    51  40  65 E7        30.09S
FRENCH LICK *+ CLOUDY    45 N/A N/A NE7       30.08S
JEFFERSONVL +  CLOUDY    49  45  87 NE6       30.07F
MADISON *+     CLOUDY    46  46 100 NE7       30.09F
NORTH VERNON + CLOUDY    48  41  76 E9        30.08F
SEYMOUR +      CLOUDY    52  45  76 NE7       30.08F

$$




USA.gov is the U.S. government's official web portal to all federal, state and local government web resources and services.